Grigor Bayramyan

Jefe de ojeadores - Ararat
9 Jul 2028
Domingo
Continuar

Personalidad

Adaptabilidad (8) Ambición (11) Controversia (15) Lealtad (8) Presión (11) Profesionalismo (13) Deportividad (2) Temperamento (1)

Perfil

Estilo de dirección Democrático
Licencia Continental B
Determinación 5
Gestión de personas 6
Motivación 10
Disciplina 8
Satisfacción laboral
100%
Fatiga
0%
Cargo Jefe de ojeadores
Salario 32.3K p/s
Contrato 14.03.2030

Rendimiento

Comportamiento Bueno
Efectividad del entrenamiento
44%
Desarrollo de jugadores
15%
Prevención de lesiones
30%
Implementación táctica
45%

Eventos recientes

Asistió a una reunión de captación 7d atrás
Asistió a una reunión de captación 14d atrás
Asistió a una reunión de captación 21d atrás
Asistió a una reunión de captación 28d atrás
Asistió a una reunión de captación 35d atrás
Asistió a una reunión de captación 42d atrás
Asistió a una reunión de captación 49d atrás
Asistió a una reunión de captación 56d atrás

Actualmente siguiendo

125
Jugador Club Estado Habilidad Confianza Observado Última observación Último voto
Stanislav Buchnev Pyunik Activo 84 / 94 41% 1 03.07.2028 -
Alejandro Rincon Llaneros Activo 112 / 101 40% 3 29.12.2027 -
Lucas Cano All Boys Activo 103 / 98 40% 4 28.12.2027 -
Santiago Rodríguez Gimnasia y Esgrima Activo 111 / 118 40% 3 28.12.2027 -
Rodrigo Pollero Deportivo Tachira Activo 107 / 119 40% 3 26.12.2027 -
Lisandro Cabrera Maipú Activo 120 / 102 40% 2 26.12.2027 -
Dato Mchedlidze Tskhinvali Activo 90 / 101 40% 1 25.12.2027 -
Tobías Cervera Gimnasia y Esgrima Activo 102 / 113 40% 1 25.12.2027 -
Daniel Barrea Godoy Cruz Activo 116 / 135 40% 4 24.12.2027 -
Santiago Sala Güemes Activo 124 / 105 40% 3 24.12.2027 -
Octavio Bianchi Gimnasia y Esgrima Activo 121 / 119 40% 1 23.12.2027 -
Agustín Gallo Tristán Suárez Activo 120 / 110 40% 3 17.12.2027 -
Sagir Arce Saburtalo Activo 94 / 109 40% 4 11.12.2027 -
Gianluca Pugliese Güemes Activo 119 / 105 40% 4 11.12.2027 -
Sebastián Marfort Racing Activo 89 / 114 40% 1 06.12.2027 -
Lautaro Gordillo Colegiales Activo 115 / 123 40% 3 05.12.2027 -
Renzo Reynaga Patronato Activo 109 / 98 40% 2 05.12.2027 -
Ronaldo Peña Deportivo Lara Activo 112 / 93 40% 4 03.12.2027 -
Franco Ayunta Temperley Activo 117 / 111 40% 4 03.12.2027 -
José Balza Deportivo Tachira Activo 105 / 106 40% 2 02.12.2027 -
Jeriel De Santis Caracas Activo 104 / 114 40% 2 01.12.2027 -
Elías Peralta Lokomotivi Activo 100 / 94 40% 1 01.12.2027 -
Jhonatan Candia Barracas Central Activo 111 / 110 40% 2 30.11.2027 -
Genaro Rossi San Martín SJ Activo 115 / 105 40% 2 30.11.2027 -
Juan David Rueda Alianza Petrolera Activo 129 / 99 40% 2 27.11.2027 -
Rafael Moreno Atletico Venezuela Activo 123 / 128 40% 2 26.11.2027 -
Rodrigo Mosqueira Stjarnan Activo 112 / 102 40% 2 26.11.2027 -
Richard Figueroa Deportivo Lara Activo 127 / 93 40% 1 25.11.2027 -
Álex Arce Independiente Rivadavia Activo 125 / 139 40% 1 23.11.2027 -
Sunday Megwo Abia Warriors Activo 83 / 109 40% 3 22.11.2027 -
Alejandro Melo FC Lahti Activo 111 / 107 40% 1 22.11.2027 -
Mauricio Márquez Caracas Activo 120 / 101 40% 7 20.11.2027 -
Ronny Maza Aragua Activo 113 / 103 40% 1 20.11.2027 -
José Barreto Quilmes Activo 135 / 118 40% 2 19.11.2027 -
Lorenzo Barrera Agropecuario Argentino Activo 86 / 94 40% 2 19.11.2027 -
Sergio González Racing Activo 134 / 110 40% 2 17.11.2027 -
Favio Cabral Mitre Activo 111 / 108 40% 1 17.11.2027 -
Agustín Lavezzi Quilmes Activo 90 / 103 40% 1 15.11.2027 -
Salomon Ramirez Atletico Venezuela Activo 92 / 107 40% 1 12.11.2027 -
Gustavo Viera Cerro Largo Activo 97 / 115 40% 1 06.11.2027 -
Enzo González Defensores Activo 99 / 111 40% 2 05.11.2027 -
Sebastián Cocimano Nueva Chicago Activo 104 / 117 40% 3 05.11.2027 -
Tornike Mikautadze Tskhinvali Activo 112 / 105 40% 1 28.10.2027 -
Matías Samaniego Talleres Activo 102 / 85 40% 2 27.10.2027 -
César Magallan Estudiantes de Merida Activo 114 / 120 40% 4 22.10.2027 -
Kekuta Manneh Samtredia Activo 104 / 83 40% 1 22.10.2027 -
Nicolás Heiz Maipú Activo 103 / 96 40% 2 21.10.2027 -
Rafael Arace Caracas Activo 127 / 118 40% 2 07.10.2027 -
Alan Bonansea Colón Activo 94 / 102 40% 2 06.10.2027 -
Junior Paredes Trujillanos Activo 95 / 93 40% 1 06.10.2027 -
Juan Mendoza Güemes Activo 86 / 115 40% 1 24.09.2027 -
Adalberto Peñaranda Deportivo Tachira Activo 139 / 99 40% 2 17.09.2027 -
Facundo Castelli Estudiantes Activo 130 / 118 40% 2 11.09.2027 -
Rodrigo Bogarín Barracas Central Activo 129 / 125 40% 1 11.09.2027 -
Camilo Machado Madryn Activo 115 / 101 40% 1 08.09.2027 -
Tomás Bolzicco Chaco For Ever Activo 81 / 112 40% 1 08.09.2027 -
Rui Costa Port Vale Activo 104 / 122 40% 1 09.08.2027 -
Lorenzo De Leo Renate Activo 92 / 90 40% 1 26.07.2027 -
Giuseppe Panico Foggia Activo 140 / 111 40% 2 19.07.2027 -
Augusto Berrondo Tristán Suárez Activo 125 / 97 40% 1 19.07.2027 -
Andrew Dallas Sambenedettese Activo 83 / 103 40% 1 12.07.2027 -
Patrick Schmidt Tarxien Rainbows Activo 88 / 102 40% 3 22.06.2027 -
Ruslan Apekov Torpedo Moscow Activo 87 / 104 40% 1 01.06.2027 -
Mikhail Ignatov Sochi Activo 136 / 123 40% 1 29.05.2027 -
Thom van Bergen Groningen Activo 108 / 119 40% 1 28.05.2027 -
Damir Céter Hamrun Spartans Activo 105 / 115 40% 2 26.05.2027 -
Martin Sekulić Ural Activo 132 / 102 40% 2 24.05.2027 -
Leonardo Candellone Juve Stabia Activo 109 / 102 40% 1 23.05.2027 -
Mômô Fanyé Touré Alashkert Activo 117 / 119 40% 3 22.05.2027 -
Törles Knöll Al-Ta'ee Activo 108 / 117 40% 1 22.05.2027 -
Jonathan Cañete Portuguesa Activo 137 / 105 40% 1 20.05.2027 -
Yakou Meïté Damac Activo 119 / 109 40% 3 17.05.2027 -
Vladislav Sarveli Nizhniy Novgorod Activo 129 / 117 40% 2 15.05.2027 -
Kamran Aliev SKA Khabarovsk Activo 102 / 96 40% 3 11.05.2027 -
Robert Murić Floriana Activo 88 / 86 40% 1 02.05.2027 -
Prince Ibara Al-Njoom Activo 101 / 105 40% 1 02.05.2027 -
David Davidyan Rotor Activo 81 / 116 40% 1 01.05.2027 -
Ekain Orobengoa Real Sociedad Activo 81 / 100 40% 1 30.04.2027 -
Matheus Aiás Noah Activo 105 / 125 40% 2 27.04.2027 -
Georgy Gongadze Ufa Activo 76 / 113 40% 1 23.04.2027 -
Yeangel Montero Naxxar Lions Activo 100 / 93 40% 2 17.04.2027 -
Moussakoye Diallo Stade Malien Activo 123 / 104 40% 1 17.04.2027 -
Alexandr Saplinov Volga Activo 93 / 99 40% 2 16.04.2027 -
Georgy Melkadze Akhmat Grozny Activo 119 / 103 40% 1 15.04.2027 -
Leandro Antunes Al-Riyadh Activo 123 / 115 40% 1 08.04.2027 -
Carlos Guerreño Hajer Activo 84 / 103 40% 3 07.04.2027 -
Indrit Tuci Olimpija Ljubljana Activo 87 / 107 40% 1 07.04.2027 -
Renat Garayev AZAL Activo 121 / 100 40% 3 06.04.2027 -
Artem Poliarus Urartu Activo 108 / 111 41% 1 25.01.2027 -
Kauan Floriana Activo 106 / 106 40% 1 03.01.2027 -
Yilson Mosquera Tarxien Rainbows Activo 97 / 93 40% 1 02.01.2027 -
Vyacheslav Grulev Nizhniy Novgorod Activo 89 / 125 40% 2 31.12.2026 -
Khetag Khosonov Akron Activo 112 / 110 40% 1 31.12.2026 -
François Kamano Sochi Activo 99 / 129 40% 1 21.12.2026 -
Karim El Berkaoui Al-Khaleej Activo 111 / 134 40% 2 19.12.2026 -
Alexey Kashtanov Torpedo Moscow Activo 113 / 119 40% 1 17.12.2026 -
Younes El Bahraoui Al-Taawoun Activo 119 / 113 40% 1 16.12.2026 -
Oumar Gonzalez Al-Ra'ed Activo 106 / 134 40% 1 15.12.2026 -
Artem Sokol Rodina Activo 113 / 98 40% 1 15.12.2026 -
Musa Qurbanlı Qarabag Activo 116 / 102 40% 1 11.12.2026 -
Leandro Lacunza Hibernians Activo 116 / 82 40% 1 08.12.2026 -
Shahriyar Abdullayev Ravan Activo 97 / 110 40% 1 07.12.2026 -
Zoumana Simpara Djoliba Activo 87 / 99 40% 1 02.12.2026 -
Yegor Kortsov Dinamo Brest Activo 116 / 97 40% 1 28.11.2026 -
David Karaev KAMAZ Activo 111 / 92 40% 1 26.11.2026 -
Jáder Valencia Deportes Tolima Activo 133 / 102 40% 1 25.11.2026 -
Rüstəm Əhmədzadə Sumgayit Activo 103 / 118 40% 1 25.11.2026 -
Ilja Safronov Rotor Activo 102 / 96 40% 1 23.11.2026 -
Liam Bennett Cambridge United Activo 121 / 107 40% 1 21.11.2026 -
Cavid Nazarov Khazar Activo 117 / 116 40% 1 19.11.2026 -
Macaulay Langstaff Millwall Activo 107 / 126 40% 2 18.11.2026 -
Gevorg Tarakhchyan Pyunik Activo 115 / 89 40% 1 24.09.2026 -
Magnus Lankhof Dahlby Stabaek Activo 95 / 87 40% 1 22.09.2026 -
Denzel Jubitana Neftchi Activo 127 / 108 40% 1 19.09.2026 -
Egor Bogomolskiy Zira Activo 102 / 95 40% 1 18.09.2026 -
Paul Ayongo Ararat-Armenia Activo 105 / 119 40% 1 16.09.2026 -
Matty Stevens AFC Wimbledon Activo 90 / 122 40% 1 14.09.2026 -
Steven Alfred Torpedo-BelAZ Activo 94 / 83 40% 1 14.09.2026 -
Mo Dauda Portimonense Activo 109 / 92 40% 1 13.09.2026 -
Will Swan Bradford City Activo 78 / 99 40% 1 08.09.2026 -
Valentin Costache Noah Activo 111 / 127 40% 1 08.09.2026 -
Vladislav Yatskevich BATE Activo 122 / 99 40% 1 07.09.2026 -
Jonel Désirè Van Activo 79 / 85 41% 1 31.08.2026 -
Allef Van Activo 82 / 98 41% 1 10.08.2026 -
Hamlet Mnatsakanyan Shirak Activo 92 / 88 41% 1 03.08.2026 -